Location: Alpine Heights
(32.8181°N, 116.7809°W)
Time: 07:16:05
(UTC+00:00)

Cosmos 2151 Rocket - Pass Details

Date: 14 April 2021
Orbit: 618 x 641 km, 82.5° (Epoch: 13 May)

Event Time Altitude Azimuth Distance (km) Brightness Sun altitude
Rises 12:30:26 0° 347° (NNW) 2,941 7.1 -10.5°
Reaches altitude 10° 12:32:43 10° 343° (NNW) 2,031 6.2 -10.1°
Maximum altitude 12:37:06 52° 267° (W) 793 3.8 -9.2°
Drops below altitude 10° 12:41:28 10° 191° (S) 2,024 5.9 -8.3°
Sets 12:43:44 0° 186° (S) 2,930 6.8 -7.9°
